Location: Igloolik
(69.3800°N, 81.8000°W)
Time: 07:16:28
(UTC-05:00)

Amateur Radio Satellites - All Passes

Search period start: 27 May 2016 06:46
Search period end: 28 May 2016 06:46
Location: Igloolik, 69.3800°N, 81.8000°W

Satellite Date Start Highest point End Downlink Frequencies (MHz)
Time Altitude Azimuth
Gurwin Techsat 1B 27 May 06:49:50 06:54:17 28° 339° (NNW) 06:58:44 435.225
LilacSat-2 27 May 06:49:52 06:53:30 41° 100° (E) 06:57:07 437.200
POPSAT HIP 1 27 May 06:53:03 06:55:57 18° 18° (NNE) 06:58:50 437.405
QB50P1 27 May 06:53:30 06:56:24 18° 19° (NNE) 06:59:17 145.935-145.965
QB50P2 27 May 06:55:30 06:58:27 19° 20° (NNE) 07:01:23 145.880/145.840
STRAND 1 27 May 06:55:44 07:00:41 47° 259° (W) 07:05:40 437.568
POLYITAN 1 27 May 06:57:57 07:00:53 19° 20° (NNE) 07:03:49 437.675
HORYU 2 27 May 06:58:47 07:03:11 64° 303° (WNW) 07:07:35 437.375
BRITE-PL 27 May 07:00:02 07:05:31 60° 103° (ESE) 07:10:34 437.365/2234.400
UNISAT 6 27 May 07:00:15 07:03:54 27° 37° (NE) 07:07:32 437.425
CUTE-I 27 May 07:02:44 07:07:58 51° 102° (ESE) 07:13:13 437.470
SO-50 27 May 07:06:33 07:10:54 34° 210° (SSW) 07:15:08 436.795
TIGRISAT 27 May 07:07:57 07:11:38 28° 38° (NE) 07:15:18 435.000
NANOSAT C BR1 27 May 07:11:59 07:15:01 19° 23° (NNE) 07:18:02 145.865
Cosmos 2491 27 May 07:12:04 07:20:38 50° 320° (NW) 07:29:11 435.465 / 435.565
ITAMSAT 1 27 May 07:12:18 07:16:47 30° 334° (NNW) 07:21:16 435.822/435.867
CINEMA 3 27 May 07:17:35 07:20:27 17° 80° (E) 07:23:15 145.822/145.860
Cosmos 2504 27 May 07:22:54 07:28:55 24° 297° (WNW) 07:35:13 435.465 / 435.565
CANX-2 27 May 07:25:28 07:28:39 20° 83° (E) 07:31:51 2200.000
GOMX 1 27 May 07:27:59 07:32:59 54° 102° (ESE) 07:37:36 467.674
SEEDS 27 May 07:29:29 07:32:17 17° 80° (E) 07:35:05 437.485
AO-85 27 May 07:32:53 07:37:22 28° 139° (SE) 07:41:39 145.980
CUBESAT XI-V 27 May 07:36:03 07:36:40 10° 294° (WNW) 07:37:18 437.345
ANTELSAT 27 May 07:40:57 07:44:57 38° 46° (NE) 07:48:54 437.575/2403.000
PRISM 27 May 07:46:09 07:50:16 53° 255° (WSW) 07:54:25 437.425
NOAA 18 27 May 07:50:06 07:55:37 83° 116° (ESE) 08:01:08 137.9125
DUCHIFAT 1 27 May 07:50:12 07:53:34 23° 32° (NNE) 07:56:55 145.980
CUTE 1.7 + AOD 2 27 May 07:52:44 07:56:19 25° 89° (E) 07:59:55 437.475
NOAA 15 27 May 07:53:41 07:59:04 85° 299° (WNW) 08:04:24 137.62
Oscar 11 27 May 07:55:15 07:56:50 12° 72° (ENE) 07:58:25 145.826/435.025
GONETS M04 27 May 07:55:17 08:04:06 82° 66° (ENE) 08:12:51
YUBILEINY 27 May 07:55:52 07:59:17 13° 327° (NNW) 08:02:43 435.215
Cubesat XI-IV 27 May 07:56:21 08:01:46 85° 116° (ESE) 08:07:09 437.490
AUBIESAT-1 27 May 07:58:38 08:00:21 13° 93° (E) 08:02:02 437.475
M-CUBED/EXP-1 PRIME 27 May 08:04:35 08:06:46 16° 96° (E) 08:08:53 437.505
ZACube-1 27 May 08:08:19 08:10:02 12° 74° (ENE) 08:11:46 437.345
Oscar 19 27 May 08:10:17 08:14:20 23° 9° (N) 08:18:23 437.125/150
CUBEBUG 2 27 May 08:10:49 08:13:44 18° 82° (E) 08:16:39 437.445
BUGSAT 1 27 May 08:10:50 08:14:02 22° 30° (NNE) 08:17:13 437.445
Cosmos 2499 27 May 08:11:53 08:20:06 75° 61° (ENE) 08:28:52 435.465 / 435.565
AO-7 27 May 08:14:24 08:22:27 55° 335° (NNW) 08:30:32 29.400- 29.500
JAS-2 27 May 08:15:24 08:22:28 39° 18° (NNE) 08:29:27 435.910
COMPASS 1 27 May 08:16:25 08:19:55 25° 88° (E) 08:23:25 437.405
CUSAT 1 27 May 08:18:17 08:21:07 12° 46° (NE) 08:24:00 437.405
AIST 1 27 May 08:18:54 08:23:07 45° 263° (W) 08:27:17
AAUSAT CUBESAT 2 27 May 08:19:31 08:22:54 23° 87° (E) 08:26:18 437.432
DOVE 4 27 May 08:19:53 08:24:35 66° 106° (ESE) 08:28:59 437.250
HO-68 27 May 08:20:09 08:26:55 42° 95° (E) 08:33:40 435.675
LilacSat-2 27 May 08:24:16 08:27:59 55° 302° (WNW) 08:31:42 437.200
POPSAT HIP 1 27 May 08:27:06 08:30:51 31° 41° (NE) 08:34:35 437.405
QB50P1 27 May 08:27:32 08:31:17 32° 42° (NE) 08:35:03 145.935-145.965
Gurwin Techsat 1B 27 May 08:28:55 08:33:05 24° 3° (N) 08:37:14 435.225
QB50P2 27 May 08:29:35 08:33:23 33° 43° (NE) 08:37:11 145.880/145.840
POLYITAN 1 27 May 08:32:03 08:35:50 33° 43° (NE) 08:39:38 437.675
HORYU 2 27 May 08:35:29 08:39:17 28° 326° (NW) 08:43:03 437.375
UNISAT 6 27 May 08:35:55 08:40:11 66° 60° (ENE) 08:44:27 437.425
STRAND 1 27 May 08:37:44 08:41:07 18° 283° (WNW) 08:44:32 437.568
BRITE-PL 27 May 08:38:40 08:44:06 57° 306° (NW) 08:49:09 437.365/2234.400
UWE-3 27 May 08:40:25 08:43:40 22° 86° (E) 08:46:55 435.000/436.395/437.385
CUTE-I 27 May 08:42:59 08:48:18 65° 306° (NW) 08:53:36 437.470
TIGRISAT 27 May 08:43:38 08:47:55 70° 61° (ENE) 08:52:11 435.000
NANOSAT C BR1 27 May 08:46:04 08:49:57 36° 46° (NE) 08:53:49 145.865
FUNcube-1 27 May 08:46:04 08:49:02 19° 83° (E) 08:52:01 145.935
SO-50 27 May 08:47:18 08:50:18 17° 234° (SW) 08:53:15 436.795
ITAMSAT 1 27 May 08:51:06 08:55:10 24° 358° (N) 08:59:14 435.822/435.867
DELFI C3 27 May 08:54:12 08:56:38 15° 80° (E) 08:59:05 145.870
CINEMA 3 27 May 08:54:22 08:58:37 54° 103° (ESE) 09:02:43 145.822/145.860
PCSat 27 May 09:00:35 09:01:49 11° 104° (ESE) 09:03:02 145.827
CANX-2 27 May 09:01:04 09:05:21 62° 106° (ESE) 09:09:36 2200.000
SEEDS 27 May 09:04:46 09:08:57 52° 103° (ESE) 09:13:07 437.485
GOMX 1 27 May 09:06:13 09:11:13 57° 306° (NW) 09:15:52 467.674
Cosmos 2491 27 May 09:11:40 09:19:43 37° 350° (N) 09:27:44 435.465 / 435.565
AO-85 27 May 09:12:06 09:17:10 45° 162° (SSE) 09:21:55 145.980
Cosmos 2504 27 May 09:17:00 09:19:24 12° 324° (NW) 09:21:49 435.465 / 435.565
ANTELSAT 27 May 09:17:12 09:21:31 78° 247° (WSW) 09:25:50 437.575/2403.000
O/OREOS (USA 219) 27 May 09:19:22 09:22:21 18° 107° (ESE) 09:25:21 437.305
PRISM 27 May 09:23:45 09:26:31 17° 278° (W) 09:29:19 437.425
DUCHIFAT 1 27 May 09:24:34 09:28:40 51° 54° (NE) 09:32:46 145.980
CUTE 1.7 + AOD 2 27 May 09:28:30 09:32:47 81° 109° (ESE) 09:37:06 437.475
Oscar 11 27 May 09:30:15 09:34:16 35° 95° (E) 09:38:16 145.826/435.025
NOAA 18 27 May 09:30:55 09:36:08 46° 319° (NW) 09:41:20 137.9125
AUBIESAT-1 27 May 09:32:22 09:35:45 47° 115° (ESE) 09:39:00 437.475
NOAA 15 27 May 09:33:36 09:38:33 40° 322° (NW) 09:43:28 137.62
Cubesat XI-IV 27 May 09:36:36 09:41:39 44° 318° (NW) 09:46:42 437.490
M-CUBED/EXP-1 PRIME 27 May 09:38:41 09:42:08 58° 118° (ESE) 09:45:25 437.505
ZACube-1 27 May 09:43:38 09:47:33 38° 97° (E) 09:51:28 437.345
BUGSAT 1 27 May 09:44:46 09:48:47 46° 52° (NE) 09:52:46 437.445
DANDE 27 May 09:46:51 09:51:06 17° 56° (ENE) 09:55:46 436.750
CUBEBUG 2 27 May 09:47:08 09:51:16 58° 105° (ESE) 09:55:23 437.445
Oscar 19 27 May 09:48:01 09:52:39 33° 32° (NNE) 09:57:15 437.125/150
COMPASS 1 27 May 09:51:53 09:56:08 79° 111° (ESE) 10:00:22 437.405
GONETS M04 27 May 09:52:20 10:00:37 50° 273° (W) 10:08:51
AAUSAT CUBESAT 2 27 May 09:54:52 09:59:05 74° 110° (ESE) 10:03:18 437.432
CUSAT 1 27 May 09:54:54 10:00:44 26° 70° (ENE) 10:06:59 437.405
HUMSAT D 27 May 09:55:53 09:59:11 22° 87° (E) 10:02:29 437.325/437.525
AIST 1 27 May 09:57:18 09:59:48 15° 286° (WNW) 10:02:17
DOVE 4 27 May 09:57:45 10:02:16 45° 310° (NW) 10:06:31 437.250
LilacSat-2 27 May 09:58:50 10:01:47 22° 324° (NW) 10:04:44 437.200
JAS-2 27 May 09:58:54 10:06:28 56° 42° (NE) 10:14:03 435.910
POPSAT HIP 1 27 May 10:02:04 10:06:19 82° 65° (ENE) 10:10:34 437.405
QB50P1 27 May 10:02:30 10:06:46 83° 63° (ENE) 10:11:02 145.935-145.965
QB50P2 27 May 10:04:39 10:08:55 87° 68° (ENE) 10:13:11 145.880/145.840
Cosmos 2499 27 May 10:05:14 10:13:11 56° 268° (W) 10:21:37 435.465 / 435.565
AO-7 27 May 10:06:27 10:14:18 48° 2° (N) 10:22:11 29.400- 29.500
POLYITAN 1 27 May 10:07:08 10:11:23 87° 58° (ENE) 10:15:38 437.675
Gurwin Techsat 1B 27 May 10:07:20 10:11:55 30° 27° (NNE) 10:16:32 435.225
HO-68 27 May 10:08:14 10:15:28 88° 120° (ESE) 10:22:42 435.675
HORYU 2 27 May 10:11:46 10:14:51 19° 349° (N) 10:17:56 437.375
UNISAT 6 27 May 10:13:09 10:17:13 39° 262° (W) 10:21:17 437.425
UWE-3 27 May 10:16:43 10:20:53 70° 109° (ESE) 10:25:03 435.000/436.395/437.385
BRITE-PL 27 May 10:17:05 10:21:51 30° 330° (NNW) 10:26:22 437.365/2234.400
TIGRISAT 27 May 10:20:57 10:24:59 37° 263° (W) 10:28:59 435.000
NANOSAT C BR1 27 May 10:21:15 10:25:30 82° 249° (WSW) 10:29:45 145.865
FUNcube-1 27 May 10:22:01 10:26:09 60° 105° (ESE) 10:30:18 145.935
CUTE-I 27 May 10:23:04 10:27:49 33° 329° (NNW) 10:32:33 437.470
DELFI C3 27 May 10:28:30 10:32:28 49° 102° (ESE) 10:36:25 145.870
ITAMSAT 1 27 May 10:29:09 10:33:31 28° 22° (NNE) 10:37:53 435.822/435.867
AISAT 27 May 10:29:10 10:31:24 13° 75° (ENE) 10:33:37 437.250
CINEMA 3 27 May 10:31:40 10:35:51 49° 307° (NW) 10:39:54 145.822/145.860
CANX-2 27 May 10:37:06 10:41:11 45° 308° (NW) 10:45:17 2200.000
PCSat 27 May 10:39:05 10:43:37 28° 128° (SE) 10:48:10 145.827
UKube-1 27 May 10:39:51 10:41:27 12° 74° (ENE) 10:43:01 .
SEEDS 27 May 10:40:37 10:44:45 51° 305° (NW) 10:48:53 437.485
GOMX 1 27 May 10:44:18 10:48:38 28° 329° (NNW) 10:52:44 467.674
AO-85 27 May 10:52:10 10:57:14 51° 185° (S) 11:01:57 145.980
ANTELSAT 27 May 10:55:21 10:58:55 24° 271° (W) 11:02:27 437.575/2403.000
O/OREOS (USA 219) 27 May 10:56:33 11:00:54 46° 130° (SE) 11:05:15 437.305
DUCHIFAT 1 27 May 11:00:21 11:04:29 52° 256° (WSW) 11:08:37 145.980
CUTE 1.7 + AOD 2 27 May 11:04:32 11:08:28 36° 313° (NW) 11:12:24 437.475
ESTCUBE 1 27 May 11:05:05 11:08:51 25° 87° (E) 11:12:37 437.505/2401.250
Oscar 11 27 May 11:06:26 11:10:48 75° 298° (WNW) 11:15:09 145.826/435.025
AUBIESAT-1 27 May 11:07:00 11:10:24 49° 318° (NW) 11:13:40 437.475
Cosmos 2491 27 May 11:10:57 11:19:09 40° 22° (NNE) 11:27:18 435.465 / 435.565
NOAA 18 27 May 11:11:22 11:15:59 29° 343° (NNW) 11:20:37 137.9125
NOAA 15 27 May 11:13:04 11:17:25 26° 346° (NNW) 11:21:45 137.62
50 SAT 27 May 11:13:12 11:16:01 20° 87° (E) 11:18:49 437.505
M-CUBED/EXP-1 PRIME 27 May 11:13:23 11:16:45 43° 321° (NW) 11:19:56 437.505
Cubesat XI-IV 27 May 11:16:27 11:20:53 27° 342° (NNW) 11:25:18 437.490
ZACube-1 27 May 11:20:01 11:24:09 67° 300° (WNW) 11:28:19 437.345
BUGSAT 1 27 May 11:20:03 11:24:12 58° 254° (WSW) 11:28:18 437.445
CUBEBUG 1 27 May 11:22:57 11:26:37 25° 88° (E) 11:30:15 437.445
CUBEBUG 2 27 May 11:23:56 11:27:56 45° 308° (NW) 11:31:55 437.445
DX 1 27 May 11:24:55 11:28:23 22° 87° (E) 11:31:49 434.975-435.025
DANDE 27 May 11:25:51 11:31:53 36° 82° (E) 11:39:01 436.750
Oscar 19 27 May 11:26:17 11:31:27 67° 56° (NE) 11:36:38 437.125/150
COMPASS 1 27 May 11:27:38 11:31:32 37° 313° (NW) 11:35:25 437.405
VELOX 1 27 May 11:28:53 11:32:39 26° 89° (E) 11:36:22 145.980
AAUSAT CUBESAT 2 27 May 11:30:32 11:34:27 38° 312° (NW) 11:38:21 437.432
HUMSAT D 27 May 11:31:22 11:35:31 73° 110° (ESE) 11:39:40 437.325/437.525
LilacSat-2 27 May 11:33:12 11:35:05 13° 347° (NNW) 11:36:58 437.200
CUSAT 1 27 May 11:34:24 11:41:29 54° 95° (E) 11:49:17 437.405
DOVE 4 27 May 11:35:26 11:39:11 23° 334° (NNW) 11:42:46 437.250
POPSAT HIP 1 27 May 11:38:45 11:42:34 31° 266° (W) 11:46:23 437.405
QB50P1 27 May 11:39:13 11:43:01 31° 266° (W) 11:46:49 145.935-145.965
QB50P2 27 May 11:41:29 11:45:14 29° 267° (W) 11:48:59 145.880/145.840
YUBILEINY 27 May 11:41:59 11:44:30 12° 27° (NNE) 11:47:01 435.215
JAS-2 27 May 11:43:28 11:51:17 83° 247° (WSW) 11:59:13 435.910
POLYITAN 1 27 May 11:43:59 11:47:42 29° 268° (W) 11:51:26 437.675
Gurwin Techsat 1B 27 May 11:46:01 11:51:13 57° 51° (NE) 11:56:28 435.225
HORYU 2 27 May 11:47:08 11:50:15 19° 13° (NNE) 11:53:23 437.375
GONETS M04 27 May 11:49:09 11:55:35 24° 301° (WNW) 12:01:58
SPROUT 27 May 11:51:43 11:55:05 22° 86° (E) 11:58:25 437.525
UNISAT 6 27 May 11:53:07 11:55:09 13° 285° (WNW) 11:57:11 437.425
UWE-3 27 May 11:53:22 11:57:16 39° 311° (NW) 12:01:10 435.000/436.395/437.385
BRITE-PL 27 May 11:54:52 11:59:07 23° 354° (N) 12:03:12 437.365/2234.400
HO-68 27 May 11:56:04 12:02:58 52° 325° (NW) 12:09:52 435.675
AO-7 27 May 11:58:07 12:06:13 58° 29° (NNE) 12:14:21 29.400- 29.500
NANOSAT C BR1 27 May 11:58:19 12:01:51 25° 270° (W) 12:05:24 145.865
Cosmos 2499 27 May 11:58:25 12:04:53 27° 294° (WNW) 12:11:39 435.465 / 435.565
FUNcube-1 27 May 11:58:28 12:02:25 45° 308° (NW) 12:06:25 145.935
TIGRISAT 27 May 12:01:11 12:02:56 12° 286° (WNW) 12:04:41 435.000
CUTE-I 27 May 12:02:36 12:06:49 25° 353° (N) 12:11:03 437.470
DELFI C3 27 May 12:03:30 12:07:27 51° 304° (NW) 12:11:22 145.870
AISAT 27 May 12:04:54 12:09:08 39° 98° (E) 12:13:19 437.250
ITAMSAT 1 27 May 12:07:15 12:12:14 48° 45° (NE) 12:17:15 435.822/435.867
CINEMA 3 27 May 12:08:56 12:12:22 23° 330° (NNW) 12:15:41 145.822/145.860
CANX-2 27 May 12:13:06 12:16:22 22° 331° (NNW) 12:19:38 2200.000
UKube-1 27 May 12:14:46 12:18:48 35° 97° (E) 12:22:48 .
BEESAT 2 27 May 12:15:39 12:16:50 11° 123° (ESE) 12:18:01 435.950
SEEDS 27 May 12:16:30 12:19:52 23° 327° (NNW) 12:23:14 437.485
TISAT 1 27 May 12:17:28 12:20:04 16° 80° (E) 12:22:40 437.305
PCSat 27 May 12:20:58 12:26:14 53° 152° (SSE) 12:31:32 145.827
GOMX 1 27 May 12:21:48 12:25:34 21° 353° (N) 12:29:10 467.674
AO-85 27 May 12:32:29 12:37:12 37° 209° (SSW) 12:41:33 145.980
O/OREOS (USA 219) 27 May 12:35:36 12:40:11 84° 332° (NNW) 12:44:45 437.305
DUCHIFAT 1 27 May 12:38:23 12:41:08 17° 279° (W) 12:43:53 145.980
CUTE 1.7 + AOD 2 27 May 12:40:26 12:43:29 19° 336° (NNW) 12:46:33 437.475
AUBIESAT-1 27 May 12:41:33 12:44:28 24° 341° (NNW) 12:47:18 437.475
ESTCUBE 1 27 May 12:41:49 12:46:24 74° 110° (ESE) 12:50:59 437.505/2401.250
Oscar 11 27 May 12:42:46 12:46:34 30° 320° (NW) 12:50:22 145.826/435.025
50 SAT 27 May 12:46:40 12:50:24 71° 109° (ESE) 12:54:08 437.505
M-CUBED/EXP-1 PRIME 27 May 12:47:56 12:50:49 23° 344° (NNW) 12:53:35 437.505
BEESAT 3 27 May 12:48:46 12:51:36 19° 137° (SE) 12:54:27 437.485
SWISSCUBE 27 May 12:49:59 12:52:05 13° 72° (ENE) 12:54:12 437.505
NOAA 18 27 May 12:51:03 12:55:32 27° 8° (N) 13:00:01 137.9125
NOAA 15 27 May 12:51:45 12:56:01 25° 10° (N) 13:00:18 137.62
Cubesat XI-IV 27 May 12:55:34 12:59:47 25° 6° (N) 13:04:02 437.490
ITUPSAT 1 27 May 12:55:55 12:58:05 13° 72° (ENE) 13:00:15 437.325
ZACube-1 27 May 12:56:32 13:00:02 27° 322° (NW) 13:03:32 437.345
BUGSAT 1 27 May 12:57:29 13:00:25 18° 276° (W) 13:03:21 437.445
CUBEBUG 1 27 May 12:59:08 13:03:36 76° 110° (ESE) 13:08:01 437.445
CUBEBUG 2 27 May 13:00:43 13:03:55 21° 331° (NNW) 13:07:05 437.445
DX 1 27 May 13:00:57 13:05:22 68° 110° (ESE) 13:09:44 434.975-435.025
COMPASS 1 27 May 13:03:17 13:06:17 19° 336° (NNW) 13:09:17 437.405
VELOX 1 27 May 13:05:17 13:09:47 79° 111° (ESE) 13:14:15 145.980
Oscar 19 27 May 13:06:01 13:11:04 49° 259° (WSW) 13:16:08 437.125/150
AAUSAT CUBESAT 2 27 May 13:06:08 13:09:10 20° 334° (NNW) 13:12:13 437.432
LilacSat-2 27 May 13:06:25 13:08:10 13° 10° (N) 13:09:56 437.200
HUMSAT D 27 May 13:07:11 13:11:01 38° 312° (NW) 13:14:53 437.325/437.525
DANDE 27 May 13:07:14 13:13:55 77° 108° (ESE) 13:22:07 436.750
Cosmos 2491 27 May 13:09:05 13:17:51 62° 52° (NE) 13:26:31 435.465 / 435.565
DOVE 4 27 May 13:12:27 13:15:42 18° 358° (N) 13:18:50 437.250
CUSAT 1 27 May 13:16:02 13:23:29 79° 301° (WNW) 13:31:41 437.405
POPSAT HIP 1 27 May 13:19:10 13:19:43 10° 289° (WNW) 13:20:15 437.405
BEESAT 27 May 13:19:17 13:22:22 17° 78° (ENE) 13:25:26 436.000
QB50P1 27 May 13:19:51 13:20:10 10° 289° (WNW) 13:20:29 145.935-145.965
HORYU 2 27 May 13:22:01 13:25:52 30° 36° (NE) 13:29:43 437.375
Gurwin Techsat 1B 27 May 13:26:01 13:31:18 60° 254° (WSW) 13:36:36 435.225
SPROUT 27 May 13:27:29 13:31:47 69° 108° (ESE) 13:36:04 437.525
UWE-3 27 May 13:29:58 13:33:00 20° 334° (NNW) 13:36:01 435.000/436.395/437.385
JAS-2 27 May 13:29:59 13:37:13 41° 272° (W) 13:44:36 435.910
YUBILEINY 27 May 13:31:45 13:37:54 22° 57° (ENE) 13:44:06 435.215
BRITE-PL 27 May 13:31:47 13:36:18 25° 18° (NNE) 13:40:38 437.365/2234.400
FUNcube-1 27 May 13:34:52 13:38:01 21° 331° (NNW) 13:41:10 145.935
DELFI C3 27 May 13:38:34 13:41:44 22° 327° (NNW) 13:44:54 145.870
CUTE-I 27 May 13:41:19 13:45:43 27° 17° (NNE) 13:50:07 437.470
AISAT 27 May 13:41:28 13:45:57 69° 300° (WNW) 13:50:21 437.250
HO-68 27 May 13:43:18 13:49:47 39° 351° (N) 13:56:17 435.675
CINEMA 3 27 May 13:45:41 13:48:23 16° 354° (N) 13:51:02 145.822/145.860
GONETS M04 27 May 13:46:09 13:49:07 12° 330° (NNW) 13:52:05
ITAMSAT 1 27 May 13:46:26 13:51:38 73° 248° (WSW) 13:56:54 435.822/435.867
CANX-2 27 May 13:48:33 13:51:05 16° 354° (N) 13:53:38 2200.000
BEESAT 2 27 May 13:50:14 13:53:35 26° 146° (SE) 13:56:57 435.950
AO-7 27 May 13:50:26 13:58:48 88° 235° (SW) 14:07:15 29.400- 29.500
UKube-1 27 May 13:50:53 13:55:15 76° 299° (WNW) 13:59:36 .
Cosmos 2499 27 May 13:51:54 13:55:13 13° 321° (NW) 13:58:37 435.465 / 435.565
SEEDS 27 May 13:51:56 13:54:29 16° 351° (N) 13:57:02 437.485
TISAT 1 27 May 13:52:38 13:56:44 49° 103° (ESE) 14:00:49 437.305
GOMX 1 27 May 13:58:22 14:02:22 22° 17° (NNE) 14:06:13 467.674
PCSat 27 May 14:03:57 14:09:23 70° 176° (S) 14:14:49 145.827
AO-85 27 May 14:13:11 14:16:38 19° 233° (SW) 14:19:52 145.980
O/OREOS (USA 219) 27 May 14:15:24 14:19:56 63° 358° (N) 14:24:25 437.305
AUBIESAT-1 27 May 14:15:31 14:18:16 21° 4° (N) 14:20:54 437.475
CUTE 1.7 + AOD 2 27 May 14:15:39 14:18:08 15° 360° (N) 14:20:39 437.475
ESTCUBE 1 27 May 14:18:48 14:23:07 42° 313° (NW) 14:27:25 437.505/2401.250
Oscar 11 27 May 14:18:49 14:21:45 18° 343° (NNW) 14:24:41 145.826/435.025
KKS-1 27 May 14:20:02 14:21:25 11° 72° (ENE) 14:22:46 437.445
50 SAT 27 May 14:20:35 14:24:01 35° 311° (NW) 14:27:26 437.505
M-CUBED/EXP-1 PRIME 27 May 14:21:51 14:24:40 21° 7° (N) 14:27:21 437.505
AIST 2 27 May 14:21:53 14:23:59 14° 126° (SE) 14:26:05 435.215
BEESAT 3 27 May 14:24:53 14:28:32 36° 159° (SSE) 14:32:12 437.485
SWISSCUBE 27 May 14:26:54 14:31:20 36° 95° (E) 14:35:46 437.505
NOAA 15 27 May 14:30:00 14:34:49 36° 34° (NE) 14:39:39 137.62
NOAA 18 27 May 14:30:15 14:35:13 37° 32° (NNE) 14:40:11 137.9125
ZACube-1 27 May 14:32:44 14:35:20 16° 345° (NNW) 14:37:57 437.345
ITUPSAT 1 27 May 14:32:55 14:37:22 36° 96° (E) 14:41:49 437.325
MOZHAYETS 4 27 May 14:32:58 14:35:03 13° 72° (ENE) 14:37:08
Cubesat XI-IV 27 May 14:34:05 14:38:49 33° 30° (NNE) 14:43:33 437.490
CUBEBUG 1 27 May 14:35:36 14:39:45 40° 314° (NW) 14:43:52 437.445
CUBEBUG 2 27 May 14:36:59 14:39:26 15° 354° (N) 14:41:52 437.445
DX 1 27 May 14:37:19 14:41:30 44° 312° (NW) 14:45:40 434.975-435.025
COMPASS 1 27 May 14:38:16 14:40:41 15° 359° (N) 14:43:06 437.405
LilacSat-2 27 May 14:38:37 14:41:25 20° 33° (NNE) 14:44:12 437.200
AAUSAT CUBESAT 2 27 May 14:41:06 14:43:30 15° 357° (N) 14:45:54 437.432
VELOX 1 27 May 14:41:56 14:46:06 39° 315° (NW) 14:50:15 145.980
HUMSAT D 27 May 14:42:57 14:45:54 19° 334° (NNW) 14:48:52 437.325/437.525
Cosmos 2504 27 May 14:43:35 14:48:12 18° 52° (NE) 14:52:59 435.465 / 435.565
Oscar 19 27 May 14:48:06 14:51:40 18° 283° (WNW) 14:55:13 437.125/150
DOVE 4 27 May 14:48:28 14:52:11 22° 22° (NNE) 14:55:45 437.250
DANDE 27 May 14:50:29 14:57:19 58° 315° (NW) 15:05:30 436.750
RS-15 27 May 14:51:02 14:54:59 12° 78° (ENE) 14:58:58 29.354- 29.394
STARS 27 May 14:56:07 14:57:55 12° 74° (ENE) 14:59:44 437.465
BEESAT 27 May 14:56:41 15:01:20 47° 101° (ESE) 15:05:59 436.000
HORYU 2 27 May 14:57:35 15:02:00 69° 59° (ENE) 15:06:26 437.375
CUSAT 1 27 May 14:59:19 15:06:41 48° 327° (NNW) 15:14:28 437.405
SPROUT 27 May 15:03:38 15:07:40 41° 311° (NW) 15:11:42 437.525
UWE-3 27 May 15:05:56 15:08:19 15° 358° (N) 15:10:42 435.000/436.395/437.385
Cosmos 2491 27 May 15:06:23 15:15:09 72° 260° (W) 15:23:50 435.465 / 435.565
Gurwin Techsat 1B 27 May 15:08:09 15:12:19 23° 278° (W) 15:16:31 435.225
BRITE-PL 27 May 15:08:31 15:13:46 39° 41° (NE) 15:18:52 437.365/2234.400
FUNcube-1 27 May 15:10:46 15:13:09 15° 354° (N) 15:15:33 145.935
DELFI C3 27 May 15:13:17 15:15:33 15° 349° (N) 15:17:49 145.870
AISAT 27 May 15:18:06 15:21:59 30° 324° (NW) 15:25:50 437.250
JAS-2 27 May 15:19:11 15:24:31 19° 298° (WNW) 15:29:53 435.910
CUTE-I 27 May 15:19:53 15:24:54 43° 41° (NE) 15:29:56 437.470
CINEMA 3 27 May 15:21:20 15:24:19 18° 17° (NNE) 15:27:15 145.822/145.860
CANX-2 27 May 15:22:55 15:25:44 17° 17° (NNE) 15:28:33 2200.000
YUBILEINY 27 May 15:24:35 15:32:42 47° 84° (E) 15:40:52 435.215
SEEDS 27 May 15:26:18 15:28:58 17° 14° (NNE) 15:31:38 437.485
BEESAT 2 27 May 15:27:02 15:30:50 42° 169° (SSE) 15:34:38 435.950
UKube-1 27 May 15:27:06 15:30:56 31° 322° (NW) 15:34:46 .
ITAMSAT 1 27 May 15:27:34 15:31:58 27° 272° (W) 15:36:24 435.822/435.867
TISAT 1 27 May 15:28:25 15:32:32 54° 305° (NW) 15:36:37 437.305
HO-68 27 May 15:29:49 15:36:24 41° 17° (NNE) 15:42:59 435.675
GOMX 1 27 May 15:34:38 15:39:29 35° 40° (NE) 15:44:05 467.674
AO-7 27 May 15:44:38 15:52:33 45° 262° (W) 16:00:32 29.400- 29.500
PCSat 27 May 15:47:13 15:52:36 61° 200° (SSW) 15:57:57 145.827
AUBIESAT-1 27 May 15:48:55 15:52:07 28° 26° (NNE) 15:55:10 437.475
CUTE 1.7 + AOD 2 27 May 15:49:48 15:52:48 19° 23° (NNE) 15:55:49 437.475
Oscar 11 27 May 15:53:59 15:56:40 16° 7° (N) 15:59:22 145.826/435.025
50 SAT 27 May 15:54:33 15:57:01 17° 333° (NNW) 15:59:28 437.505
O/OREOS (USA 219) 27 May 15:55:09 15:59:42 77° 22° (NNE) 16:04:13 437.305
M-CUBED/EXP-1 PRIME 27 May 15:55:16 15:58:37 31° 30° (NNE) 16:01:46 437.505
KKS-1 27 May 15:55:19 15:59:23 33° 95° (E) 16:03:25 437.445
ESTCUBE 1 27 May 15:55:36 15:59:09 23° 336° (NNW) 16:02:42 437.505/2401.250
CUBESAT XI-V 27 May 15:57:39 15:59:44 13° 70° (ENE) 16:01:49 437.345
AIST 2 27 May 15:57:50 16:01:27 29° 149° (SSE) 16:05:05 435.215
BEESAT 3 27 May 16:02:00 16:05:47 44° 182° (S) 16:09:35 437.485
SWISSCUBE 27 May 16:04:47 16:09:37 82° 299° (WNW) 16:14:26 437.505
ZACube-1 27 May 16:07:58 16:10:26 15° 9° (N) 16:12:53 437.345
NOAA 15 27 May 16:08:50 16:14:10 73° 57° (ENE) 16:19:30 137.62
MOZHAYETS 4 27 May 16:09:16 16:13:35 36° 95° (E) 16:17:53
NOAA 18 27 May 16:09:59 16:15:26 72° 55° (NE) 16:20:54 137.9125
ITUPSAT 1 27 May 16:10:52 16:15:42 81° 298° (WNW) 16:20:32 437.325
LilacSat-2 27 May 16:11:27 16:15:07 46° 55° (NE) 16:18:46 437.200
CUBEBUG 1 27 May 16:11:54 16:15:16 21° 336° (NNW) 16:18:36 437.445
CUBEBUG 2 27 May 16:12:06 16:14:52 17° 18° (NNE) 16:17:36 437.445
COMPASS 1 27 May 16:12:09 16:15:03 18° 22° (NNE) 16:17:58 437.405
Cubesat XI-IV 27 May 16:13:05 16:18:21 65° 54° (NE) 16:23:40 437.490
DX 1 27 May 16:13:33 16:16:59 23° 335° (NNW) 16:20:25 434.975-435.025
AAUSAT CUBESAT 2 27 May 16:14:57 16:17:48 18° 21° (NNE) 16:20:37 437.432
HUMSAT D 27 May 16:18:05 16:20:23 15° 358° (N) 16:22:42 437.325/437.525
VELOX 1 27 May 16:18:23 16:21:47 22° 338° (NNW) 16:25:10 145.980
DOVE 4 27 May 16:24:24 16:29:01 38° 45° (NE) 16:33:24 437.250
STARS 27 May 16:31:29 16:35:35 36° 97° (E) 16:39:39 437.465
Cosmos 2504 27 May 16:32:40 16:39:24 38° 79° (E) 16:46:35 435.465 / 435.565
BEESAT 27 May 16:34:37 16:39:23 64° 304° (NW) 16:44:08 436.000
HORYU 2 27 May 16:34:42 16:38:53 40° 261° (W) 16:43:05 437.375
DANDE 27 May 16:34:56 16:41:46 39° 342° (NNW) 16:49:33 436.750
SPROUT 27 May 16:39:40 16:42:54 21° 334° (NNW) 16:46:07 437.525
UWE-3 27 May 16:40:45 16:43:36 18° 21° (NNE) 16:46:27 435.000/436.395/437.385
CUSAT 1 27 May 16:43:26 16:50:38 37° 353° (N) 16:57:58 437.405
FUNcube-1 27 May 16:45:30 16:48:12 17° 18° (NNE) 16:50:54 145.935
BRITE-PL 27 May 16:46:08 16:51:53 83° 64° (ENE) 16:57:28 437.365/2234.400
DELFI C3 27 May 16:46:53 16:49:11 15° 13° (NNE) 16:51:31 145.870
RS-15 27 May 16:53:27 17:02:52 30° 108° (ESE) 17:12:36 29.354- 29.394
AISAT 27 May 16:54:21 16:57:30 19° 347° (NNW) 17:00:38 437.250
CINEMA 3 27 May 16:56:36 17:00:32 30° 41° (NE) 17:04:20 145.822/145.860
CANX-2 27 May 16:56:57 17:00:39 30° 40° (NE) 17:04:21 2200.000
CUTE-I 27 May 16:59:24 17:04:45 85° 245° (WSW) 17:10:10 437.470
SEEDS 27 May 17:00:08 17:03:39 26° 37° (NE) 17:07:12 437.485
UKube-1 27 May 17:03:00 17:06:04 19° 345° (NNW) 17:09:09 .
Cosmos 2491 27 May 17:03:18 17:10:53 34° 287° (WNW) 17:18:25 435.465 / 435.565
TISAT 1 27 May 17:04:13 17:07:38 24° 328° (NNW) 17:11:01 437.305
BEESAT 2 27 May 17:04:28 17:08:16 42° 191° (SSW) 17:12:03 435.950
GOMX 1 27 May 17:11:45 17:17:10 78° 63° (ENE) 17:22:20 467.674
HO-68 27 May 17:16:21 17:23:22 62° 43° (NE) 17:30:26 435.675
YUBILEINY 27 May 17:20:19 17:29:04 87° 291° (WNW) 17:37:52 435.215
AUBIESAT-1 27 May 17:22:34 17:26:20 64° 47° (NE) 17:29:51 437.475
CUTE 1.7 + AOD 2 27 May 17:23:56 17:27:48 35° 46° (NE) 17:31:42 437.475
50 SAT 27 May 17:28:03 17:29:38 12° 356° (N) 17:31:14 437.505
Oscar 11 27 May 17:28:18 17:31:42 23° 30° (NNE) 17:35:07 145.826/435.025
M-CUBED/EXP-1 PRIME 27 May 17:29:07 17:32:58 76° 51° (NE) 17:36:33 437.505
PCSat 27 May 17:30:32 17:35:25 35° 225° (SW) 17:40:18 145.827
GONETS M04 27 May 17:31:19 17:34:21 12° 31° (NNE) 17:37:22
ESTCUBE 1 27 May 17:31:45 17:34:49 18° 359° (N) 17:37:53 437.505/2401.250
KKS-1 27 May 17:31:56 17:36:25 82° 300° (WNW) 17:40:53 437.445
CUBESAT XI-V 27 May 17:34:10 17:38:33 35° 94° (E) 17:42:54 437.345
O/OREOS (USA 219) 27 May 17:34:40 17:39:06 54° 226° (SW) 17:43:29 437.305
AIST 2 27 May 17:35:25 17:39:23 44° 172° (S) 17:43:22 435.215
BEESAT 3 27 May 17:39:25 17:43:00 33° 205° (SSW) 17:46:35 437.485
AO-7 27 May 17:41:53 17:47:47 21° 289° (WNW) 17:53:44 29.400- 29.500
ZACube-1 27 May 17:42:22 17:45:39 23° 32° (NNE) 17:48:56 437.345
SWISSCUBE 27 May 17:42:44 17:47:06 35° 321° (NW) 17:51:27 437.505
LilacSat-2 27 May 17:45:46 17:49:29 51° 257° (WSW) 17:53:13 437.200
COMPASS 1 27 May 17:45:58 17:49:46 34° 45° (NE) 17:53:34 437.405
MOZHAYETS 4 27 May 17:46:32 17:51:10 77° 298° (WNW) 17:55:49
CUBEBUG 2 27 May 17:46:53 17:50:35 30° 41° (NE) 17:54:13 437.445
CUBEBUG 1 27 May 17:47:31 17:50:24 17° 360° (N) 17:53:16 437.445
AAUSAT CUBESAT 2 27 May 17:48:41 17:52:24 32° 43° (NE) 17:56:08 437.432
ITUPSAT 1 27 May 17:48:50 17:53:13 35° 321° (NW) 17:57:34 437.325
DX 1 27 May 17:49:09 17:52:05 18° 358° (N) 17:55:00 434.975-435.025
NOAA 15 27 May 17:49:13 17:54:20 45° 260° (W) 17:59:28 137.62
NOAA 18 27 May 17:51:12 17:56:28 47° 259° (W) 18:01:46 137.9125
HUMSAT D 27 May 17:52:05 17:54:50 18° 21° (NNE) 17:57:36 437.325/437.525
Cubesat XI-IV 27 May 17:53:29 17:58:41 52° 257° (WSW) 18:03:56 437.490
VELOX 1 27 May 17:54:08 17:57:07 18° 1° (N) 18:00:06 145.980
DOVE 4 27 May 18:01:24 18:06:29 89° 229° (SW) 18:11:19 437.250
STARS 27 May 18:07:55 18:12:20 74° 299° (WNW) 18:16:42 437.465
BEESAT 27 May 18:12:31 18:16:40 30° 327° (NNW) 18:20:50 436.000
HORYU 2 27 May 18:14:29 18:16:41 13° 284° (WNW) 18:18:53 437.375
SPROUT 27 May 18:15:05 18:17:43 16° 357° (N) 18:20:20 437.525
UWE-3 27 May 18:15:27 18:19:14 33° 44° (NE) 18:22:59 435.000/436.395/437.385
DANDE 27 May 18:19:36 18:26:40 37° 9° (N) 18:34:24 436.750
DELFI C3 27 May 18:19:49 18:23:03 24° 36° (NE) 18:26:17 145.870
FUNcube-1 27 May 18:19:55 18:23:32 29° 41° (NE) 18:27:09 145.935
Cosmos 2504 27 May 18:24:34 18:32:03 84° 107° (ESE) 18:40:09 435.465 / 435.565
BRITE-PL 27 May 18:25:27 18:30:50 41° 267° (W) 18:36:07 437.365/2234.400
CUSAT 1 27 May 18:27:18 18:34:46 40° 19° (NNE) 18:42:06 437.405
AISAT 27 May 18:29:43 18:32:48 19° 10° (N) 18:35:53 437.250
CANX-2 27 May 18:31:54 18:36:08 76° 63° (ENE) 18:40:25 2200.000
CINEMA 3 27 May 18:32:46 18:37:20 76° 62° (ENE) 18:41:42 145.822/145.860
SEEDS 27 May 18:34:43 18:38:53 64° 60° (ENE) 18:43:06 437.485
UKube-1 27 May 18:38:02 18:40:58 18° 8° (N) 18:43:54 .
TISAT 1 27 May 18:39:36 18:42:15 16° 351° (N) 18:44:53 437.305
CUTE-I 27 May 18:40:43 18:45:30 33° 268° (W) 18:50:19 437.470
BEESAT 2 27 May 18:42:09 18:45:31 26° 214° (SW) 18:48:52 435.950
GOMX 1 27 May 18:50:32 18:55:40 41° 265° (W) 19:00:35 467.674
STRAND 1 27 May 18:50:57 18:55:15 26° 87° (E) 18:59:32 437.568
AUBIESAT-1 27 May 18:57:28 19:01:04 39° 248° (WSW) 19:04:29 437.475
CUTE 1.7 + AOD 2 27 May 18:59:11 19:03:27 84° 249° (WSW) 19:07:45 437.475
Cosmos 2491 27 May 19:00:06 19:05:06 17° 315° (NW) 19:10:03 435.465 / 435.565
50 SAT 27 May 19:00:07 19:02:12 15° 19° (NNE) 19:04:18 437.505
RS-15 27 May 19:01:40 19:12:49 54° 138° (SE) 19:24:28 29.354- 29.394
Oscar 11 27 May 19:03:01 19:07:10 48° 53° (NE) 19:11:22 145.826/435.025
HO-68 27 May 19:04:02 19:11:11 71° 248° (WSW) 19:18:24 435.675
M-CUBED/EXP-1 PRIME 27 May 19:04:20 19:07:53 33° 251° (WSW) 19:11:11 437.505
ESTCUBE 1 27 May 19:06:58 19:10:27 22° 23° (NNE) 19:13:58 437.505/2401.250
KKS-1 27 May 19:08:40 19:12:40 33° 320° (NW) 19:16:39 437.445
CUBESAT XI-V 27 May 19:11:38 19:16:24 80° 297° (WNW) 19:21:09 437.345
AIST 2 27 May 19:13:32 19:17:28 41° 195° (SSW) 19:21:23 435.215
PRISM 27 May 19:14:13 19:15:54 12° 75° (ENE) 19:17:36 437.425
O/OREOS (USA 219) 27 May 19:14:24 19:17:47 21° 249° (WSW) 19:21:07 437.305
PCSat 27 May 19:14:28 19:17:31 15° 248° (WSW) 19:20:32 145.827
ZACube-1 27 May 19:17:18 19:21:21 51° 55° (NE) 19:25:25 437.345
BEESAT 3 27 May 19:17:19 19:19:51 16° 227° (SW) 19:22:21 437.485
YUBILEINY 27 May 19:18:32 19:26:56 49° 321° (NW) 19:35:25 435.215
Cosmos 2499 27 May 19:18:41 19:23:08 17° 48° (NE) 19:27:45 435.465 / 435.565
SWISSCUBE 27 May 19:20:19 19:23:59 22° 345° (NNW) 19:27:39 437.505
COMPASS 1 27 May 19:20:54 19:25:05 87° 248° (WSW) 19:29:20 437.405
GONETS M04 27 May 19:21:25 19:27:54 24° 60° (ENE) 19:34:22
CUBEBUG 1 27 May 19:22:11 19:25:32 21° 23° (NNE) 19:28:52 437.445
LilacSat-2 27 May 19:22:24 19:24:40 15° 279° (W) 19:26:57 437.200
CUBEBUG 2 27 May 19:22:36 19:26:53 78° 64° (ENE) 19:31:05 437.445
AAUSAT CUBESAT 2 27 May 19:23:26 19:27:36 87° 64° (ENE) 19:31:49 437.432
DX 1 27 May 19:23:50 19:27:09 21° 21° (NNE) 19:30:28 434.975-435.025
MOZHAYETS 4 27 May 19:23:52 19:27:58 32° 321° (NW) 19:32:04
HUMSAT D 27 May 19:25:57 19:29:36 32° 44° (NE) 19:33:17 437.325/437.525
ITUPSAT 1 27 May 19:26:27 19:30:08 22° 345° (NNW) 19:33:49 437.325
AIST 1 27 May 19:27:54 19:30:21 15° 74° (ENE) 19:32:48
VELOX 1 27 May 19:29:00 19:32:28 22° 24° (NNE) 19:35:56 145.980
NOAA 15 27 May 19:32:05 19:35:30 17° 284° (WNW) 19:38:56 137.62
NOAA 18 27 May 19:34:52 19:38:32 18° 283° (WNW) 19:42:12 137.9125
Cubesat XI-IV 27 May 19:36:12 19:40:01 20° 281° (W) 19:43:51 437.490
DOVE 4 27 May 19:40:12 19:44:45 32° 269° (W) 19:49:06 437.250
STARS 27 May 19:44:27 19:48:19 31° 322° (NW) 19:52:10 437.465
SPROUT 27 May 19:49:28 19:52:29 19° 21° (NNE) 19:55:32 437.525
BEESAT 27 May 19:49:55 19:53:27 21° 351° (N) 19:57:00 436.000
UWE-3 27 May 19:51:13 19:55:28 89° 259° (W) 19:59:39 435.000/436.395/437.385
DELFI C3 27 May 19:53:27 19:57:23 57° 58° (ENE) 20:01:21 145.870
FUNcube-1 27 May 19:55:16 19:59:26 77° 65° (ENE) 20:03:37 145.935
DANDE 27 May 20:03:39 20:11:21 49° 35° (NE) 20:19:30 436.750
AISAT 27 May 20:04:28 20:08:16 28° 34° (NNE) 20:12:03 437.250
BRITE-PL 27 May 20:07:18 20:10:47 16° 290° (WNW) 20:14:15 437.365/2234.400
CANX-2 27 May 20:08:31 20:12:24 34° 266° (W) 20:16:19 2200.000
CUSAT 1 27 May 20:10:25 20:18:26 58° 45° (NE) 20:25:59 437.405
CINEMA 3 27 May 20:10:40 20:14:53 36° 265° (W) 20:18:57 145.822/145.860
SEEDS 27 May 20:10:53 20:14:52 40° 262° (W) 20:18:53 437.485
UKube-1 27 May 20:12:24 20:16:00 26° 31° (NNE) 20:19:36 .
TISAT 1 27 May 20:13:57 20:16:43 17° 14° (NNE) 20:19:30 437.305
Cosmos 2504 27 May 20:18:51 20:26:12 51° 316° (NW) 20:34:07 435.465 / 435.565
BEESAT 2 27 May 20:21:02 20:22:16 11° 236° (WSW) 20:23:30 435.950
CUTE-I 27 May 20:25:13 20:27:19 12° 293° (WNW) 20:29:26 437.470
STRAND 1 27 May 20:30:08 20:35:18 70° 110° (ESE) 20:40:28 437.568
GOMX 1 27 May 20:31:52 20:35:05 16° 288° (WNW) 20:38:15 467.674
50 SAT 27 May 20:31:55 20:35:03 26° 42° (NE) 20:38:11 437.505
AUBIESAT-1 27 May 20:35:04 20:36:31 12° 269° (W) 20:37:57 437.475
CUTE 1.7 + AOD 2 27 May 20:36:19 20:39:54 26° 271° (W) 20:43:31 437.475
Oscar 11 27 May 20:39:05 20:43:21 58° 255° (WSW) 20:47:39 145.826/435.025
ESTCUBE 1 27 May 20:42:13 20:46:28 40° 46° (NE) 20:50:45 437.505/2401.250
KKS-1 27 May 20:45:06 20:48:21 20° 343° (NNW) 20:51:35 437.445
PRISM 27 May 20:48:30 20:52:26 37° 98° (E) 20:56:21 437.425
CUBESAT XI-V 27 May 20:49:10 20:53:26 34° 320° (NW) 20:57:41 437.345
AIST 2 27 May 20:51:54 20:55:17 24° 218° (SW) 20:58:40 435.215
ZACube-1 27 May 20:53:41 20:57:47 50° 257° (WSW) 21:01:51 437.345
HO-68 27 May 20:53:51 21:00:08 32° 273° (W) 21:06:28 435.675
ANTELSAT 27 May 20:55:48 20:56:42 11° 71° (ENE) 20:57:36 437.575/2403.000
CUBEBUG 1 27 May 20:56:53 21:01:02 39° 46° (NE) 21:05:10 437.445
SWISSCUBE 27 May 20:57:05 21:00:37 21° 8° (N) 21:04:09 437.505
COMPASS 1 27 May 20:57:39 21:01:13 27° 270° (W) 21:04:50 437.405
DX 1 27 May 20:58:28 21:02:33 38° 44° (NE) 21:06:38 434.975-435.025
AAUSAT CUBESAT 2 27 May 20:59:57 21:03:36 29° 268° (W) 21:07:18 437.432
CUBEBUG 2 27 May 21:00:04 21:03:57 33° 266° (W) 21:07:46 437.445
MOZHAYETS 4 27 May 21:00:52 21:04:11 20° 344° (NNW) 21:07:30
HUMSAT D 27 May 21:00:53 21:04:58 89° 95° (E) 21:09:07 437.325/437.525
AIST 1 27 May 21:02:50 21:07:02 44° 97° (E) 21:11:15
ITUPSAT 1 27 May 21:03:16 21:06:48 21° 9° (N) 21:10:22 437.325
VELOX 1 27 May 21:03:58 21:08:11 42° 47° (NE) 21:12:25 145.980
Cosmos 2499 27 May 21:07:12 21:13:53 35° 76° (ENE) 21:21:03 435.465 / 435.565
RS-15 27 May 21:12:31 21:24:15 71° 169° (S) 21:36:27 29.354- 29.394
GONETS M04 27 May 21:14:33 21:22:53 50° 87° (E) 21:31:10
YUBILEINY 27 May 21:18:06 21:26:01 36° 351° (N) 21:33:57 435.215
STARS 27 May 21:20:38 21:23:45 19° 346° (NNW) 21:26:51 437.465
DOVE 4 27 May 21:22:11 21:23:56 12° 292° (WNW) 21:25:40 437.250
SPROUT 27 May 21:23:42 21:27:36 34° 44° (NE) 21:31:29 437.525
BEESAT 27 May 21:26:26 21:30:04 22° 14° (NNE) 21:33:42 436.000
DELFI C3 27 May 21:28:38 21:32:28 43° 260° (W) 21:36:20 145.870
UWE-3 27 May 21:28:50 21:32:29 27° 269° (W) 21:36:06 435.000/436.395/437.385
FUNcube-1 27 May 21:32:21 21:36:08 32° 266° (W) 21:39:54 145.935
AISAT 27 May 21:39:48 21:44:14 61° 56° (ENE) 21:48:40 437.250
DANDE 27 May 21:47:05 21:55:15 80° 60° (ENE) 22:03:41 436.750
UKube-1 27 May 21:47:14 21:51:29 56° 54° (NE) 21:55:46 .
TISAT 1 27 May 21:47:50 21:51:26 28° 37° (NE) 21:55:02 437.305
CANX-2 27 May 21:48:18 21:49:35 11° 289° (WNW) 21:50:51 2200.000
SEEDS 27 May 21:49:41 21:51:45 13° 285° (WNW) 21:53:48 437.485
UNISAT 6 27 May 21:49:50 21:53:03 20° 85° (E) 21:56:17 437.425
CINEMA 3 27 May 21:51:32 21:53:19 12° 288° (WNW) 21:55:05 145.822/145.860
CUSAT 1 27 May 21:52:59 22:01:08 79° 251° (WSW) 22:08:38 437.405
TIGRISAT 27 May 21:57:19 22:00:38 21° 86° (E) 22:03:57 435.000
50 SAT 27 May 22:04:46 22:08:27 77° 63° (ENE) 22:12:10 437.505
STRAND 1 27 May 22:09:29 22:14:27 49° 313° (NW) 22:19:25 437.568
Cosmos 2504 27 May 22:14:36 22:21:32 35° 345° (NNW) 22:28:57 435.465 / 435.565
Oscar 11 27 May 22:17:18 22:20:24 19° 278° (W) 22:23:30 145.826/435.025
ESTCUBE 1 27 May 22:18:34 22:23:08 79° 248° (WSW) 22:27:44 437.505/2401.250
KKS-1 27 May 22:20:42 22:23:45 18° 7° (N) 22:26:48 437.445
PRISM 27 May 22:23:52 22:28:05 70° 301° (WNW) 22:32:16 437.425
CUBESAT XI-V 27 May 22:26:23 22:29:52 21° 343° (NNW) 22:33:21 437.345
DUCHIFAT 1 27 May 22:30:34 22:32:44 14° 77° (ENE) 22:34:53 145.980
ANTELSAT 27 May 22:30:54 22:34:48 32° 94° (E) 22:38:41 437.575/2403.000
ZACube-1 27 May 22:32:26 22:35:04 16° 280° (W) 22:37:41 437.345
CUBEBUG 1 27 May 22:32:41 22:37:09 79° 249° (WSW) 22:41:37 437.445
SWISSCUBE 27 May 22:33:16 22:37:23 30° 32° (NNE) 22:41:31 437.505
DX 1 27 May 22:34:09 22:38:34 81° 246° (WSW) 22:43:00 434.975-435.025
MOZHAYETS 4 27 May 22:37:00 22:40:08 18° 8° (N) 22:43:16
JAS-2 27 May 22:37:09 22:41:50 17° 57° (ENE) 22:46:20 435.910
HUMSAT D 27 May 22:37:37 22:41:09 27° 269° (W) 22:44:42 437.325/437.525
ITUPSAT 1 27 May 22:39:29 22:43:37 30° 32° (NNE) 22:47:46 437.325
VELOX 1 27 May 22:40:05 22:44:34 72° 249° (WSW) 22:49:04 145.980
AIST 1 27 May 22:40:14 22:44:37 59° 300° (WNW) 22:49:01
CUBEBUG 2 27 May 22:41:00 22:41:54 11° 289° (WNW) 22:42:49 437.445
HO-68 27 May 22:47:09 22:50:28 13° 300° (WNW) 22:53:48 435.675
BUGSAT 1 27 May 22:48:41 22:49:58 11° 74° (ENE) 22:51:15 437.445
STARS 27 May 22:55:57 22:58:57 18° 9° (N) 23:01:56 437.465
Cosmos 2499 27 May 22:58:31 23:06:06 77° 103° (ESE) 23:14:21 435.465 / 435.565
SPROUT 27 May 22:58:58 23:03:18 90° 5° (N) 23:07:38 437.525
BEESAT 27 May 23:02:38 23:06:56 34° 38° (NE) 23:11:15 436.000
DELFI C3 27 May 23:06:20 23:08:22 13° 283° (WNW) 23:10:26 145.870
POPSAT HIP 1 27 May 23:08:24 23:11:45 22° 87° (E) 23:15:05 437.405
QB50P1 27 May 23:08:47 23:12:10 23° 87° (E) 23:15:30 145.935-145.965
GONETS M04 27 May 23:10:34 23:19:24 82° 294° (WNW) 23:28:13
QB50P2 27 May 23:11:07 23:14:35 24° 88° (E) 23:18:02 145.880/145.840
FUNcube-1 27 May 23:13:02 23:13:43 10° 289° (WNW) 23:14:24 145.935
POLYITAN 1 27 May 23:13:35 23:17:03 24° 88° (E) 23:20:30 437.675
AISAT 27 May 23:16:37 23:20:56 46° 259° (WSW) 23:25:17 437.250
YUBILEINY 27 May 23:17:16 23:25:23 40° 23° (NNE) 23:33:31 435.215
TISAT 1 27 May 23:22:28 23:26:39 68° 60° (ENE) 23:30:52 437.305
UKube-1 27 May 23:23:27 23:27:42 50° 257° (WSW) 23:31:58 .
RS-15 27 May 23:24:20 23:36:09 68° 200° (SSW) 23:48:20 29.354- 29.394
UNISAT 6 27 May 23:26:20 23:30:36 64° 107° (ESE) 23:34:53 437.425
NANOSAT C BR1 27 May 23:27:04 23:30:42 27° 91° (E) 23:34:18 145.865
DANDE 27 May 23:30:08 23:38:03 55° 264° (W) 23:46:05 436.750
TIGRISAT 27 May 23:33:50 23:38:07 68° 108° (ESE) 23:42:24 435.000
CUSAT 1 27 May 23:35:17 23:42:35 39° 276° (W) 23:49:22 437.405
50 SAT 27 May 23:39:21 23:42:35 28° 266° (W) 23:45:51 437.505
STRAND 1 27 May 23:48:36 23:52:54 28° 336° (NNW) 23:57:12 437.568
KKS-1 27 May 23:55:35 23:59:17 26° 30° (NNE) 00:02:57 437.445
ESTCUBE 1 27 May 23:56:48 00:00:38 26° 271° (W) 00:04:29 437.505/2401.250
PRISM 27 May 23:59:22 00:03:00 29° 323° (NW) 00:06:37 437.425
CUBESAT XI-V 28 May 00:02:45 00:06:01 19° 7° (N) 00:09:18 437.345
DUCHIFAT 1 28 May 00:05:32 00:09:33 42° 100° (E) 00:13:32 145.980
ANTELSAT 28 May 00:07:40 00:11:58 80° 297° (WNW) 00:16:17 437.575/2403.000
SWISSCUBE 28 May 00:09:56 00:14:39 62° 55° (NE) 00:19:24 437.505
Cosmos 2504 28 May 00:10:16 00:17:22 35° 16° (NNE) 00:24:55 435.465 / 435.565
CUBEBUG 1 28 May 00:10:22 00:14:06 26° 271° (W) 00:17:51 437.445
DX 1 28 May 00:11:39 00:15:24 26° 270° (W) 00:19:09 434.975-435.025
MOZHAYETS 4 28 May 00:12:25 00:16:12 26° 31° (NNE) 00:20:01
ITUPSAT 1 28 May 00:16:12 00:20:56 63° 55° (NE) 00:25:42 437.325
VELOX 1 28 May 00:18:09 00:21:47 24° 272° (W) 00:25:26 145.980
AIST 1 28 May 00:19:23 00:23:05 25° 324° (NW) 00:26:46
JAS-2 28 May 00:22:17 00:29:23 36° 84° (E) 00:36:03 435.910
BUGSAT 1 28 May 00:22:48 00:26:36 35° 97° (E) 00:30:21 437.445
STARS 28 May 00:30:36 00:34:18 26° 32° (NNE) 00:37:58 437.465
SPROUT 28 May 00:36:02 00:39:48 29° 268° (W) 00:43:34 437.525
Cosmos 2491 28 May 00:38:28 00:43:36 17° 46° (NE) 00:48:41 435.465 / 435.565
BEESAT 28 May 00:39:35 00:44:22 79° 61° (ENE) 00:49:11 436.000
POPSAT HIP 1 28 May 00:44:02 00:48:17 72° 110° (ESE) 00:52:29 437.405
QB50P1 28 May 00:44:24 00:48:40 72° 111° (ESE) 00:52:52 145.935-145.965
QB50P2 28 May 00:46:49 00:51:04 77° 110° (ESE) 00:55:18 145.880/145.840
POLYITAN 1 28 May 00:49:17 00:53:32 77° 111° (ESE) 00:57:45 437.675
Cosmos 2499 28 May 00:52:15 00:59:48 56° 312° (NW) 01:07:59 435.465 / 435.565
SO-50 28 May 00:53:48 00:56:54 17° 127° (SE) 00:59:59 436.795
AISAT 28 May 00:55:48 00:58:32 16° 282° (WNW) 01:01:15 437.250
TISAT 1 28 May 00:58:40 01:02:38 38° 262° (W) 01:06:36 437.305
UKube-1 28 May 01:01:57 01:04:46 17° 279° (W) 01:07:34 .
Oscar 19 28 May 01:02:20 01:06:41 26° 86° (E) 01:11:00 437.125/150
NANOSAT C BR1 28 May 01:02:45 01:07:00 88° 122° (ESE) 01:11:12 145.865
UNISAT 6 28 May 01:03:14 01:07:19 44° 310° (NW) 01:11:25 437.425
GONETS M04 28 May 01:09:01 01:17:27 47° 323° (NW) 01:25:51
TIGRISAT 28 May 01:10:44 01:14:45 42° 311° (NW) 01:18:48 435.000
DANDE 28 May 01:13:06 01:19:37 27° 288° (WNW) 01:26:15 436.750
YUBILEINY 28 May 01:15:19 01:24:00 63° 52° (NE) 01:32:43 435.215
CUSAT 1 28 May 01:17:43 01:22:50 19° 300° (WNW) 01:27:45 437.405
STRAND 1 28 May 01:27:01 01:30:57 23° 0° (N) 01:34:54 437.568
Gurwin Techsat 1B 28 May 01:27:09 01:31:23 23° 83° (E) 01:35:34 435.225
KKS-1 28 May 01:30:54 01:35:15 54° 53° (NE) 01:39:37 437.445
PRISM 28 May 01:34:33 01:37:22 18° 346° (NNW) 01:40:12 437.425
AO-7 28 May 01:35:17 01:39:53 15° 61° (ENE) 01:44:27 29.400- 29.500
RS-15 28 May 01:36:06 01:47:18 47° 230° (SW) 01:58:43 29.354- 29.394
CUBESAT XI-V 28 May 01:38:23 01:42:17 26° 30° (NNE) 01:46:12 437.345
DUCHIFAT 1 28 May 01:41:20 01:45:30 62° 302° (WNW) 01:49:38 145.980
ANTELSAT 28 May 01:44:35 01:48:22 31° 319° (NW) 01:52:09 437.575/2403.000
ITAMSAT 1 28 May 01:44:40 01:48:03 17° 76° (ENE) 01:51:26 435.822/435.867
SWISSCUBE 28 May 01:48:03 01:52:41 49° 258° (WSW) 01:57:22 437.505
MOZHAYETS 4 28 May 01:48:17 01:52:46 54° 54° (NE) 01:57:17
ITUPSAT 1 28 May 01:54:22 01:59:01 48° 258° (WSW) 02:03:41 437.325
BUGSAT 1 28 May 01:58:14 02:02:21 70° 298° (WNW) 02:06:22 437.445
AIST 1 28 May 01:59:21 02:02:11 16° 349° (N) 02:05:01
Cosmos 2504 28 May 02:04:55 02:12:42 52° 45° (NE) 02:21:00 435.465 / 435.565
STARS 28 May 02:05:47 02:10:07 58° 55° (NE) 02:14:27 437.465
JAS-2 28 May 02:07:40 02:15:35 76° 109° (ESE) 02:22:54 435.910
BEESAT 28 May 02:18:11 02:22:36 37° 264° (W) 02:27:04 436.000
POPSAT HIP 1 28 May 02:20:00 02:23:58 40° 312° (NW) 02:27:54 437.405
QB50P1 28 May 02:20:22 02:24:20 39° 312° (NW) 02:28:16 145.935-145.965
QB50P2 28 May 02:22:49 02:26:44 38° 313° (NW) 02:30:39 145.880/145.840
POLYITAN 1 28 May 02:25:17 02:29:11 38° 313° (NW) 02:33:05 437.675
Cosmos 2491 28 May 02:30:11 02:37:51 35° 74° (ENE) 02:45:29 435.465 / 435.565
SO-50 28 May 02:31:57 02:36:20 34° 150° (SSE) 02:40:41 436.795
TISAT 1 28 May 02:37:40 02:39:29 12° 285° (WNW) 02:41:19 437.305
NANOSAT C BR1 28 May 02:38:41 02:42:30 34° 316° (NW) 02:46:18 145.865
UNISAT 6 28 May 02:40:04 02:43:21 22° 333° (NNW) 02:46:38 437.425
Oscar 19 28 May 02:41:40 02:46:54 71° 110° (ESE) 02:52:04 437.125/150
TIGRISAT 28 May 02:47:31 02:50:44 21° 334° (NNW) 02:53:57 435.000
Cosmos 2499 28 May 02:47:37 02:54:46 37° 341° (NNW) 03:02:27 435.465 / 435.565
DANDE 28 May 02:56:35 03:00:05 13° 312° (NW) 03:03:38 436.750
STRAND 1 28 May 03:04:42 03:09:00 28° 25° (NNE) 03:13:20 437.568
Gurwin Techsat 1B 28 May 03:07:04 03:12:23 61° 106° (ESE) 03:17:40 435.225
KKS-1 28 May 03:07:33 03:11:57 53° 255° (WSW) 03:16:21 437.445
GONETS M04 28 May 03:08:39 03:16:37 36° 354° (N) 03:24:31
PRISM 28 May 03:08:50 03:11:32 17° 9° (N) 03:14:14 437.425
YUBILEINY 28 May 03:12:33 03:21:13 71° 260° (W) 03:29:55 435.215
CUBESAT XI-V 28 May 03:14:26 03:19:01 53° 53° (NE) 03:23:39 437.345
DUCHIFAT 1 28 May 03:17:13 03:20:43 26° 325° (NW) 03:24:12 145.980
ANTELSAT 28 May 03:21:15 03:24:11 18° 343° (NNW) 03:27:07 437.575/2403.000
ITAMSAT 1 28 May 03:23:49 03:28:52 45° 100° (E) 03:33:54 435.822/435.867
MOZHAYETS 4 28 May 03:25:33 03:30:03 54° 257° (WSW) 03:34:37
AO-7 28 May 03:28:11 03:35:42 35° 89° (E) 03:43:12 29.400- 29.500
SWISSCUBE 28 May 03:28:28 03:31:37 17° 281° (W) 03:34:49 437.505
BUGSAT 1 28 May 03:33:48 03:37:18 28° 322° (NW) 03:40:47 437.445
ITUPSAT 1 28 May 03:34:52 03:38:01 17° 281° (WNW) 03:41:11 437.325
AIST 1 28 May 03:38:34 03:41:31 17° 15° (NNE) 03:44:26
STARS 28 May 03:42:22 03:46:40 48° 257° (WSW) 03:50:57 437.465
RS-15 28 May 03:47:57 03:56:49 25° 260° (W) 04:05:48 29.354- 29.394
JAS-2 28 May 03:52:50 04:00:32 60° 315° (NW) 04:07:45 435.910
POPSAT HIP 1 28 May 03:55:52 03:59:00 20° 335° (NNW) 04:02:08 437.405
QB50P1 28 May 03:56:14 03:59:22 20° 335° (NNW) 04:02:28 145.935-145.965
QB50P2 28 May 03:58:41 04:01:46 20° 336° (NNW) 04:04:51 145.880/145.840
Cosmos 2504 28 May 03:58:48 04:06:53 87° 252° (WSW) 04:15:32 435.465 / 435.565
BEESAT 28 May 03:59:34 04:01:49 13° 287° (WNW) 04:04:04 436.000
POLYITAN 1 28 May 04:01:09 04:04:13 20° 336° (NNW) 04:07:17 437.675
NOAA 15 28 May 04:10:39 04:11:54 11° 65° (ENE) 04:13:09 137.62
HORYU 2 28 May 04:10:47 04:14:00 19° 84° (E) 04:17:14 437.375
SO-50 28 May 04:11:34 04:16:16 48° 173° (S) 04:20:52 436.795
NANOSAT C BR1 28 May 04:14:26 04:17:24 19° 339° (NNW) 04:20:22 145.865
UNISAT 6 28 May 04:16:19 04:18:57 16° 356° (N) 04:21:36 437.425
NOAA 18 28 May 04:18:38 04:19:52 11° 65° (ENE) 04:21:05 137.9125
Oscar 19 28 May 04:21:10 04:26:11 49° 313° (NW) 04:31:09 437.125/150
TIGRISAT 28 May 04:23:41 04:26:18 16° 358° (N) 04:28:56 435.000
Cosmos 2491 28 May 04:24:51 04:33:38 73° 101° (ESE) 04:42:25 435.465 / 435.565
BRITE-PL 28 May 04:36:57 04:39:52 15° 67° (ENE) 04:42:41 437.365/2234.400
PRISM 28 May 04:42:25 04:45:49 24° 32° (NNE) 04:49:15 437.425
STRAND 1 28 May 04:42:32 04:47:29 51° 48° (NE) 04:52:28 437.568
Cosmos 2499 28 May 04:43:07 04:50:21 35° 12° (NNE) 04:58:03 435.465 / 435.565
KKS-1 28 May 04:46:25 04:49:30 18° 278° (W) 04:52:36 437.445
Gurwin Techsat 1B 28 May 04:47:13 04:52:27 56° 309° (NW) 04:57:39 435.225
CUBESAT XI-V 28 May 04:51:50 04:56:29 57° 256° (WSW) 05:01:12 437.345
DUCHIFAT 1 28 May 04:52:44 04:55:24 17° 348° (NNW) 04:58:05 145.980
ANTELSAT 28 May 04:57:03 04:59:43 16° 6° (N) 05:02:23 437.575/2403.000
GOMX 1 28 May 05:00:21 05:01:52 11° 64° (ENE) 05:03:22 467.674
CUTE-I 28 May 05:01:54 05:05:07 16° 73° (ENE) 05:08:20 437.470
ITAMSAT 1 28 May 05:03:28 05:08:41 71° 304° (WNW) 05:13:55 435.822/435.867
MOZHAYETS 4 28 May 05:05:03 05:08:15 18° 280° (W) 05:11:29
LilacSat-2 28 May 05:06:06 05:07:05 11° 74° (ENE) 05:08:05 437.200
GONETS M04 28 May 05:07:47 05:15:58 41° 25° (NNE) 05:24:07
BUGSAT 1 28 May 05:09:06 05:11:45 17° 345° (NNW) 05:14:22 437.445
YUBILEINY 28 May 05:09:25 05:16:54 34° 288° (WNW) 05:24:24 435.215
AIST 1 28 May 05:16:40 05:20:32 28° 40° (NE) 05:24:21
STARS 28 May 05:21:18 05:24:05 16° 280° (W) 05:26:51 437.465
AO-7 28 May 05:21:31 05:29:55 72° 115° (ESE) 05:38:19 29.400- 29.500
POPSAT HIP 1 28 May 05:31:07 05:33:40 16° 358° (N) 05:36:13 437.405
QB50P1 28 May 05:31:27 05:34:01 16° 358° (N) 05:36:33 145.935-145.965
QB50P2 28 May 05:33:52 05:36:26 16° 359° (N) 05:38:59 145.880/145.840
POLYITAN 1 28 May 05:36:20 05:38:53 16° 360° (N) 05:41:26 437.675
JAS-2 28 May 05:37:28 05:44:36 40° 340° (NNW) 05:51:26 435.910
DOVE 4 28 May 05:46:53 05:48:34 12° 68° (ENE) 05:50:13 437.250
HORYU 2 28 May 05:47:05 05:51:29 58° 106° (ESE) 05:55:53 437.375
NOAA 15 28 May 05:48:54 05:53:34 29° 89° (E) 05:58:10 137.62
NANOSAT C BR1 28 May 05:49:26 05:51:58 16° 2° (N) 05:54:31 145.865
UNISAT 6 28 May 05:51:30 05:54:30 19° 20° (NNE) 05:57:31 437.425
SO-50 28 May 05:51:41 05:56:18 43° 197° (SSW) 06:00:48 436.795
Cosmos 2504 28 May 05:52:19 05:59:44 42° 277° (W) 06:07:35 435.465 / 435.565
Cubesat XI-IV 28 May 05:55:24 05:59:54 27° 86° (E) 06:04:25 437.490
NOAA 18 28 May 05:57:44 06:02:29 29° 89° (E) 06:07:13 137.9125
TIGRISAT 28 May 05:58:48 06:01:50 19° 21° (NNE) 06:04:52 435.000
Oscar 19 28 May 06:00:24 06:04:46 28° 337° (NNW) 06:09:06 437.125/150
BRITE-PL 28 May 06:14:54 06:19:59 38° 92° (E) 06:24:43 437.365/2234.400
HO-68 28 May 06:15:33 06:19:41 16° 65° (ENE) 06:23:47 435.675
PRISM 28 May 06:16:28 06:20:35 54° 54° (NE) 06:24:42 437.425
AO-85 28 May 06:19:42 06:23:14 18° 126° (SE) 06:26:40 145.980
STRAND 1 28 May 06:21:34 06:26:40 67° 251° (WSW) 06:31:49 437.568
Cosmos 2491 28 May 06:22:13 06:30:59 61° 309° (NW) 06:39:43 435.465 / 435.565
Gurwin Techsat 1B 28 May 06:27:09 06:31:44 30° 333° (NNW) 06:36:20 435.225
DUCHIFAT 1 28 May 06:27:16 06:29:55 17° 11° (N) 06:32:34 145.980
CUBESAT XI-V 28 May 06:31:23 06:34:52 20° 279° (W) 06:38:22 437.345
ANTELSAT 28 May 06:31:58 06:35:20 23° 30° (NNE) 06:38:43 437.575/2403.000
GOMX 1 28 May 06:37:12 06:41:41 31° 89° (E) 06:45:52 467.674
LilacSat-2 28 May 06:38:59 06:42:32 35° 97° (E) 06:46:03 437.200
